User: anonymous   Login
Location: Allos
(44.2333°N, 6.6333°E)
Time: 06:02:05
(UTC+00:00)
Language:

Meteor 1-25 Rocket - Orbit

View from above orbital plane
View from above orbital plane
View from above satellite
View from above satellite

Ground track
Ground track

The orbit data is extracted from the following two-line orbital elements,

1 08846U 76043B   21055.76424185 -.00000047  00000-0 -34406-4 0  9990
2 08846  81.2186  79.6011 0037783 167.7607 192.4490 14.08589134300645
Epoch (UTC): 24 February 2021 18:20:30
Eccentricity: 0.0037783
inclination: 81.2186°
perigee height: 837 km
apogee height: 891 km
right ascension of ascending node: 79.6011°
argument of perigee: 167.7607°
revolutions per day: 14.08589134
mean anomaly at epoch: 192.4490°
orbit number at epoch: 30064

The dashed part of the orbit path shows where the satellite is in the earth's shadow,  

DLR